Location: Home
(42.5358°N, 72.7383°W)
Time: 18:38:40
(UTC-05:00)

Vanguard 1 Rocket - Visible Passes

Search period start: 29 November 2021 00:00
Search period end: 09 December 2021 00:00
Orbit: 650 x 4226 km, 34.3° (Epoch: 29 November)

Date Brightness Start Highest point End Pass type
(mag) Time Alt. Az. Time Alt. Az. Time Alt. Az.
29 Nov 10.2 02:09:05 38° SE 02:09:05 38° SE 02:26:21 10° E visible
29 Nov 10.1 04:26:23 28° WSW 04:36:23 65° SSE 05:00:57 10° E visible
30 Nov 10.8 01:01:59 20° ESE 01:01:59 20° ESE 01:09:25 10° E visible
30 Nov 9.7 03:19:16 47° SSW 03:23:10 56° SSE 03:44:53 10° E visible
30 Nov 10.5 05:36:34 12° W 05:52:43 67° S 06:18:31 10° ESE visible
01 Dec 10.0 02:12:08 42° SE 02:12:08 42° SE 02:28:37 10° E visible
01 Dec 10.0 04:29:25 31° WSW 04:38:37 66° S 05:03:00 10° E visible
02 Dec 10.7 01:04:58 22° ESE 01:04:58 22° ESE 01:12:12 10° E visible
02 Dec 9.6 03:22:15 52° SSW 03:25:20 59° SSE 03:46:58 10° E visible
02 Dec 10.5 05:39:32 13° W 05:54:55 65° S 06:20:25 10° ESE visible
03 Dec 9.9 02:15:04 45° SE 02:15:04 45° SE 02:30:49 10° E visible
03 Dec 9.9 04:32:20 33° WSW 04:40:54 66° S 05:04:59 10° ESE visible
04 Dec 10.7 01:07:51 23° ESE 01:07:51 23° ESE 01:14:45 10° E visible
04 Dec 9.5 03:25:08 56° SSW 03:27:38 62° SSE 03:49:00 10° E visible
04 Dec 10.5 05:42:24 14° W 05:57:07 62° SSW 06:22:10 10° ESE visible
05 Dec 9.8 02:17:54 47° SE 02:17:54 47° SE 02:32:57 10° E visible
05 Dec 9.8 04:35:11 34° WSW 04:43:14 65° S 05:06:52 10° ESE visible
06 Dec 10.7 01:10:40 24° E 01:10:40 24° E 01:17:09 10° E visible
06 Dec 9.4 03:27:56 58° SSW 03:30:01 63° S 03:51:00 10° E visible
06 Dec 10.4 05:45:13 14° W 05:59:19 57° SSW 06:23:43 10° SE visible
07 Dec 9.8 02:20:42 48° SE 02:20:42 48° SE 02:35:05 10° E visible
07 Dec 9.8 04:37:58 34° WSW 04:45:35 62° S 05:08:39 10° ESE visible
08 Dec 10.6 01:13:26 24° E 01:13:26 24° E 01:19:28 10° E visible
08 Dec 9.3 03:30:43 59° SSW 03:32:27 62° S 03:52:57 10° ESE visible
08 Dec 10.4 05:48:00 14° W 06:01:31 52° SSW 06:25:03 10° SE visible
